Skip Page Navigation
NASA JPL Caltech
NASA Logo - Jet Propulsion Laboratory + View the NASA Portal
+ Near-Earth Object (NEO) Program
Search JPL
JPL Home Earth Solar System Stars & Galaxies Technology
JPL Solar System Dynamics
BODIES ORBITS EPHEMERIDES TOOLS PHYSICAL DATA DISCOVERY FAQ SITE MAP
JPL Small-Body Database Browser
Search: [ help ]  
170P/Christensen
Classification: Jupiter-family Comet          SPK-ID: 1001649
Ephemeris | Orbit Diagram | Orbital Elements | Physical Parameters | Close-Approach Data ]

[ hide orbit diagram ]
Orbit Diagram
Note: Make sure you have Java enabled on your browser to see the applet. This applet is provided as a 3D orbit visualization tool. The applet was implemented using 2-body methods, and hence should not be used for determining accurate long-term trajectories (over several years or decades) or planetary encounter circumstances. For accurate long-term ephemerides, please instead use our Horizons system.
Orbit Viewer

Additional Notes: the orbits shown in the applet are color coded. The planets are white lines, and the asteroid/comet is a blue line. The bright white line indicates the portion of the orbit that is above the ecliptic plane, and the darker portion is below the ecliptic plane. Likewise for the asteroid/comet orbit, the light blue indicates the portion above the ecliptic plane, and the dark blue the portion below the ecliptic plane.

Orbit Viewer applet originally written and kindly provided by Osamu Ajiki (AstroArts), and further modified by Ron Baalke (JPL).


Orbital Elements at Epoch 2454526.5 (2008-Mar-01.0) TDB
Reference: JPL 15 (heliocentric ecliptic J2000)
 Element Value Uncertainty (1-sigma)   Units 
e 0.3041703987394087094209 8.1529e-06  
a 4.2085668404576397350069 6.2866e-05 AU
q 2.9284453864741859518972 9.5789e-06 AU
i 10.127749878524479498764 3.6839e-05 deg
node 143.0124731407759 0.00011839 deg
peri 225.384253800514 0.0014624 deg
M 87.26343007111285 0.0027851 deg
tp 2453762.084385846080
(2006-Jan-26.58438585)
0.0073369 JED
period 3153.550357476818
8.63
0.07066
0.0001935
d
yr
n .1141570481493877 2.5578e-06 deg/d
Q 5.488688294441094 8.1988e-05 AU
  Orbit Determination Parameters
   # obs. used (total)      126  
   data-arc span      985 days (2.70 yr)  
   first obs. used      2005-06-17  
   last obs. used      2008-02-27  
   planetary ephem.      DE405  
   SB-pert. ephem.      SB405-CPV-2  
   condition code      3  
   fit RMS      .67442  
   data source      ORB  
   producer      Nick Mastrodemos  
   solution date      2008-Mar-06 18:11:07  

Additional Information
 Earth MOID = 1.93778 AU 
 T_jup = 2.923 
[ show covariance matrix ]

Ephemeris | Orbit Diagram | Orbital Elements | Physical Parameters | Close-Approach Data ]

Physical Parameter Table
Parameter Symbol Value Units Sigma Reference Notes
comet total magnitude M1 11.7 mag 0.8 15 from 76 observations, assumed slope, autocmod 2.4a
comet total magnitude slope K1 11.   n/a 15 autocmod 2.4a
comet nuclear magnitude M2 15.2 mag 0.9 15 from 33 observations, autocmod 2.4a
comet nuclear magnitude slope K2 5.   n/a 15 autocmod 2.4a
comet nuclear phase coefficient PC 0.03   n/a 15 autocmod 2.4a

[ show close-approach data ]
Alternate Designations
 Perihelion 
Year
(est.)
 New-Style 
Desig
Roman
 Numeral 
Year/
 Letter 
 2006.1   170P/2005 M1       
Ephemeris | Orbit Diagram | Orbital Elements | Physical Parameters | Close-Approach Data ]
ABOUT SSD CREDITS/AWARDS PRIVACY/COPYRIGHT GLOSSARY LINKS
FirstGov 2013-May-24 18:01 UT
(server date/time)  
NASA Home Page
Site Manager:   Donald K. Yeomans
Webmaster  Alan B. Chamberlin